GFSFLT2_prec_radar_108.txt.gz
Reflectivity
-20 -20 -20 -20 -14 0 -18 9 25 32 26 25 12 3 29 20 7 4 -0 -17 -20 -20 -20 -20 -20 -20 7 19 -13 11 7 -20
-20 -20 -20 -20 -20 -4 -3 -14 30 15 16 -14 23 19 39 23 -20 22 -12 -20 -20 -20 -20 1 -5 12 20 1 -9 -20 -20 -20
-20 -20 -20 -20 -20 -20 -12 15 2 28 -11 19 22 20 32 26 30 13 -10 -20 -20 -20 -12 -20 6 8 12 6 -19 0 -5 -17
-20 -20 -20 -20 -20 -20 -20 1 32 14 24 26 23 5 -18 27 23 4 -20 -20 -20 -20 -20 -20 17 12 9 4 -20 -9 -20 -20
-20 -20 -20 -20 -20 -20 -20 -20 -20 27 29 28 26 22 23 39 23 -20 -20 -20 -20 -20 -20 -4 13 19 14 -13 -20 -20 -20 -20
-20 -20 -20 -20 -20 -20 -20 -20 -18 21 10 32 25 38 28 36 25 -20 -20 -20 -20 -20 10 4 -20 -20 -20 -20 -20 -20 -20 -20
-20 -20 -20 -20 -20 -20 -20 -20 24 30 19 33 14 5 15 14 21 -20 -1 -20 -20 -20 -20 -20 -20 -20 -20 -20 -20 -20 -20 -20
-20 -20 -20 -20 -20 -20 -20 -20 30 26 27 32 24 18 22 13 -17 -20 -20 -20 -20 -20 -20 -20 -20 -15 -20 -20 -20 -20 -20 -20
-20 -20 -20 -20 -20 -20 -20 -20 23 27 27 22 11 24 29 3 2 -20 -20 -20 -20 -20 -20 -20 -20 7 -20 -20 -20 -20 -20 -20
-20 -20 -20 -20 -20 -20 -20 -20 14 26 28 23 -1 16 32 -4 -20 -20 -20 -20 -20 -20 -20 -20 -20 10 -20 -20 -20 -20 -20 -20
-20 -20 -20 -20 -20 -20 -20 -20 -17 22 37 27 27 31 29 -3 -4 -20 -20 -20 -20 -20 -20 -20 -16 -8 -20 -20 -20 -20 -20 -20
-20 -20 -20 -20 -20 -12 -20 -17 -20 14 34 35 34 31 3 -16 -12 -20 -20 -20 -20 -20 -20 -20 -20 -20 -20 -20 -9 -18 -20 -20
-20 -20 -20 -20 -20 12 13 -20 -20 10 18 18 35 33 23 14 -20 -20 -20 -20 -20 -20 -20 -20 -20 -20 -20 -20 10 14 -1 -20
-20 -20 -20 -20 -20 -20 -20 5 -14 -15 -15 9 12 28 22 -20 -20 -20 -20 -20 -8 -20 -20 -20 -20 -17 -8 -20 -20 -20 -2 2
-20 -20 -20 -20 -20 -20 -20 -20 22 6 10 7 9 8 -1 -20 11 1 -12 -20 -20 -20 -20 -20 -20 -13 -12 -20 -20 -20 -20 -15
-20 -20 -20 -20 -20 -20 -20 -20 -12 16 -5 -20 16 -6 -20 -20 -10 18 19 -10 -20 -11 -20 -20 -20 -20 -14 -20 -20 -19 -12 6
-20 -20 -20 -18 -20 -20 -20 -20 -20 -20 9 24 26 24 16 11 16 11 29 22 -3 3 -9 -7 -20 13 -19 -12 -18 13 9 -13
-20 -20 -20 -20 -20 -16 -15 -20 -20 -9 2 -12 30 35 28 25 16 1 24 12 5 -0 9 -8 25 23 -0 7 23 20 6 13
-20 -20 -20 -20 -20 -20 -11 -20 -20 -20 -13 18 5 39 33 32 28 26 24 28 28 33 30 35 33 34 32 24 26 24 10 24
-20 -20 -20 -20 -20 -10 -20 -20 -20 -19 -20 16 25 31 34 34 32 26 17 29 30 33 35 34 33 32 29 22 26 17 -18 -19

GFSFLT2_prec_radar_114.txt.gz
Reflectivity
-20 -20 -20 -8 -3 -20 -20 -20 -20 -20 -20 -20 -19 10 -15 -19 14 29 -4 -20 7 12 13 -20 -20 -20 -20 -20 -20 -20 -20 -20
-20 -20 -20 -20 -19 -2 -20 -20 -20 -20 -20 -20 -20 -16 -19 6 1 39 -2 -6 12 -6 -17 -20 -20 -20 -20 -20 -20 -20 -20 -20
-20 -20 -20 -20 -20 -11 5 9 -11 -20 -20 -20 -20 -20 -20 -20 7 26 13 20 13 12 -20 -20 -20 -20 -20 -20 -20 -20 -20 -20
-20 -20 -20 -20 -20 -6 -0 10 -20 7 4 -20 -20 -20 -20 -20 -20 27 26 30 12 -20 -20 -20 -20 -20 -20 -1 -20 -20 -20 -20
-20 -20 -20 -20 -20 -20 -20 -11 17 23 27 -16 -19 -20 -20 -20 -20 -19 -18 -9 8 -14 -16 -20 -20 -20 -20 -18 6 -15 -8 -14
-20 -20 -20 -20 -20 -20 -20 -20 -2 17 21 23 22 14 -7 11 -20 5 -10 17 -20 5 -19 -20 -20 -20 -20 -20 -20 6 -13 3
-20 -20 -20 -20 -20 -20 -20 -20 -7 3 16 21 26 26 21 23 32 23 -10 -0 -1 15 -20 -20 -20 -20 -20 -20 -20 -20 -20 -20
-20 -20 -20 -20 -20 -20 -20 -20 -20 -16 15 7 22 10 22 21 22 30 15 -12 22 3 -20 -20 -20 -20 -20 -19 -2 -11 -20 -20
-20 -20 -20 -20 -20 -20 -20 -20 -18 3 -10 6 1 18 29 23 27 11 -3 -9 -13 -20 -20 -20 -20 -20 -20 -20 -20 -20 -20 -20
-20 -20 -20 -20 -20 -20 -20 -20 -20 -20 -13 1 10 14 23 18 27 21 20 8 -20 -20 -20 -20 -20 -20 -20 -20 -20 -20 -20 -20
-20 -20 -20 -20 -20 -20 -20 -20 -20 -20 -20 -20 -10 16 32 28 23 22 18 3 -20 -20 -20 -20 -20 -20 -20 -20 -20 -20 -20 -20
-20 -20 -20 -20 -20 -20 -20 -16 -12 -20 -20 -13 -20 22 27 30 15 25 20 23 -20 -20 -20 -20 -20 -20 -20 -20 -20 -20 -20 -20
-20 -20 -20 -20 -20 -20 -20 -20 -20 3 -20 -20 -17 24 24 39 23 28 8 -7 -20 -20 -20 -20 -20 -20 -20 -20 -20 -20 -20 -20
-20 -20 -20 -20 -20 -3 -19 6 2 -20 -20 6 -5 25 26 28 22 27 5 4 -20 -20 -20 -20 -20 -20 -20 -20 -20 -20 -17 -20
-20 -20 -20 -20 -20 -10 -4 1 -20 -17 -9 1 6 33 33 24 26 10 15 4 1 -20 -20 -17 -19 -20 -20 -20 -18 5 11 -20
-20 -20 -20 -20 -20 -20 -20 -20 -20 -20 -20 7 -11 24 34 27 26 9 1 3 -20 -20 -20 -20 -20 -20 -20 -18 -18 -19 -8 -20
-20 -20 -20 -20 -20 -20 -20 -20 -20 -20 -20 -1 8 4 20 32 27 12 10 -7 -20 -20 -20 -20 -20 -20 -20 -20 -20 -20 -13 -20
-20 -20 -20 -20 -20 -20 -20 -20 -20 -18 -12 -14 19 7 1 22 32 26 25 2 -6 -20 -20 -20 -20 -20 -20 -18 -20 -20 -20 -20
-20 -20 -20 -20 -20 -20 -20 -20 -20 -18 -14 -20 -17 8 21 -4 7 17 17 3 -20 -20 -20 -20 -20 -20 -20 -20 -20 -13 -6 11
-20 -20 -20 -20 -20 -20 -20 -20 -20 -20 -20 -20 -20 -6 -12 5 7 6 24 22 -12 16 -19 -3 -15 -20 -20 -20 3 11 23 24

GFSFLT2_prec_radar_117.txt.gz
Reflectivity
-20 -17 -3 -20 -20 -11 -20 -20 -20 -20 -20 -17 -20 -20 -20 -2 4 24 10 2 -20 -20 -12 -18 -20 -20 -20 -20 -20 -20 -20 -20
-20 -20 -20 5 -2 -6 -20 -20 -20 -20 -20 -20 -20 -20 -20 -20 -20 -20 -20 23 -14 -20 -20 -20 -20 -20 -20 -20 -20 -20 -20 -20
-20 -20 -12 -14 2 3 -13 -16 -20 -20 -20 -20 -20 -20 -20 -20 -20 -20 -20 3 10 -9 -7 -20 -20 -20 -20 -20 -20 -20 -20 -20
-20 -20 -20 8 -9 -20 8 0 3 -19 -20 -20 -20 -20 -20 -20 -20 -20 -20 -20 13 14 -5 -20 -20 -20 -20 -20 -20 -20 -20 -20
-20 -20 -19 1 -2 -12 -1 12 12 -3 18 -20 -20 -20 -20 -20 -20 -20 -18 -11 20 26 -17 6 -9 -20 -20 -20 -20 -20 -20 -20
-20 -20 -20 -1 8 -17 -18 2 -3 -8 2 2 -13 -11 -19 -20 -20 -3 -20 -20 3 9 -20 -20 -20 -20 -20 -20 -20 -13 -18 -20
-20 -20 -20 -20 -18 9 2 -19 -20 9 -11 24 7 13 -7 -20 -5 -0 -9 -5 -20 -5 -6 -20 -20 -20 -20 -20 -20 -20 -20 2
-20 -20 -20 -20 -20 -20 -16 -18 -20 -4 -4 10 20 20 -15 -14 -2 23 8 16 1 -20 -15 -9 -20 -20 -20 -20 -20 -20 -20 -1
-20 -20 -20 -20 -20 -20 -20 -20 -20 -5 -4 -20 -7 12 9 23 25 22 19 10 16 -0 6 -20 -20 -20 -20 -20 -20 -20 -20 -20
-20 -20 -20 -20 -20 -20 -20 -20 -20 -7 -13 8 8 4 -8 -12 20 17 22 9 23 -7 11 -20 -20 -20 -20 -20 -20 -20 -20 -20
-20 -20 -20 -20 -20 -20 -20 -20 -20 -20 -20 -6 2 5 2 -4 10 20 27 12 16 7 -20 -20 -20 -20 -20 -20 -20 -20 -20 -20
-20 -20 -20 -20 -20 -20 -20 -18 -20 3 -16 -11 -7 15 1 5 17 33 24 11 -1 7 -20 -20 -20 -20 -20 -20 -20 -20 -20 -20
-20 -20 -20 -20 -20 -20 -20 -20 0 -20 7 0 2 -20 12 9 40 28 29 32 5 4 -20 -20 -20 -20 -20 -20 -20 -20 -20 -20
-20 -20 -20 -20 -20 -20 -20 -17 -6 5 -4 -2 -20 -7 -2 21 34 35 24 4 27 -15 -14 -20 -20 -20 -20 -20 -13 -19 -20 -20
-20 -20 -20 -20 -20 -17 -20 -13 -8 8 -9 -10 -20 -10 -8 23 30 28 28 23 11 -19 -20 -20 -20 -20 -20 -20 -15 6 -20 -20
-20 -20 -20 -20 -20 -20 -20 -20 -17 15 -20 -20 -1 -17 -8 28 21 35 30 18 -6 4 -12 -20 -20 -20 -20 -20 -20 -20 -20 -4
-20 -20 -20 -20 -20 -20 -20 14 -18 -0 -2 -8 14 5 6 9 32 33 33 23 2 -15 -15 -20 -4 -20 -20 -20 -20 -20 -20 -18
-20 -20 -15 -7 -20 -20 -20 -20 -19 -6 3 4 8 3 8 16 24 32 30 21 -3 13 -20 -20 -20 -20 -20 -20 -20 -20 -20 -20
-20 -20 15 -15 -20 -20 -20 -20 -20 -20 -12 -7 6 13 12 -20 -6 30 34 33 2 14 -13 -20 -20 -20 -20 -20 -20 -20 -20 -20
-12 15 9 8 -20 22 25 -20 -20 -20 -19 4 6 6 -5 -1 -8 4 32 31 30 16 11 -15 -20 -20 -20 -20 -20 -20 -20 -13

GFSFLT2_prec_radar_120.txt.gz
Reflectivity
-20 -20 -18 -19 -6 -20 -20 -20 -20 -20 -20 -20 -20 -20 -20 -20 -20 -13 -11 32 12 -18 -17 -20 -20 -20 -20 -20 -20 -20 -20 -20
-20 -20 -20 -18 -2 -14 -20 -20 -20 -20 -20 -20 -20 -20 -20 -20 -20 -20 9 -20 -20 -20 -20 -20 -20 -20 -20 -20 -19 -20 -20 -20
-20 -20 -20 -20 -20 2 -6 -20 -20 -20 -20 -20 -20 -20 -20 -20 -20 -20 -20 -20 -20 -20 -20 -20 -20 -20 -20 -20 -20 -20 -20 -20
-20 -20 -20 -6 -20 -18 5 11 4 4 4 -19 -20 -20 17 -20 -20 -20 -17 -20 -20 -1 -16 -20 -13 -4 -20 -20 -20 -20 -20 -20
-20 -20 -20 -6 -3 -2 -6 6 8 8 9 13 -20 10 27 -20 -20 -20 -13 -11 29 30 21 -20 11 -20 -20 -20 -20 -20 -20 -20
-20 -20 -20 -20 -10 0 -7 13 -2 8 10 14 -15 3 26 -20 -20 -20 -9 8 28 27 12 18 -20 -20 -20 -20 -20 -20 -20 -20
-20 -20 -20 -20 -11 -20 -4 6 9 11 4 10 25 28 13 -15 -16 -20 -14 6 27 5 14 14 -17 -10 2 -20 -20 -20 -20 -20
-20 -20 -20 -19 -20 -20 -20 -14 7 10 4 -1 19 27 -7 -20 -20 29 30 31 21 2 2 -19 -17 -11 5 -1 -20 -20 -20 -20
-20 -20 -20 -20 0 -20 3 -20 -20 12 -5 -1 5 16 25 -17 -16 13 -11 27 32 24 17 -20 3 -12 -5 -4 -20 -20 -20 -20
-20 -20 -20 -20 -20 -1 7 -11 -19 -20 5 5 3 -2 -14 -13 16 19 11 28 33 26 7 2 6 7 -0 -1 -20 -20 -20 -20
-20 -20 -20 -20 -20 -14 7 -20 0 -18 5 8 4 -1 16 0 10 -7 21 25 29 25 19 -4 8 -9 -3 -20 -20 -20 -20 -20
-20 -20 -20 -20 -20 3 9 -2 -9 -3 0 -5 4 9 -1 4 -3 5 19 22 30 21 26 -5 -17 -20 -20 -3 -20 -20 -20 -20
-20 -20 -20 -20 -19 6 -20 -11 -20 -20 -0 -2 -20 9 12 8 16 21 -3 16 31 30 12 5 -9 -4 6 -3 7 13 5 -20
-20 -20 -20 -20 -8 -15 4 -19 -20 -4 -0 4 -13 0 11 12 14 7 23 22 23 30 23 18 -10 -16 -3 -16 12 10 -1 -9
-20 -20 -20 -20 -20 -15 0 1 3 3 6 4 -5 9 7 14 3 23 35 36 31 37 22 16 9 -11 -20 -20 -6 -15 -2 -2
-20 -20 -20 -20 -20 -20 -3 -15 -20 -20 -4 7 5 14 13 -4 -20 12 34 32 30 32 29 4 18 -20 -20 -20 -20 -20 -16 6
-20 -20 -20 5 -3 0 -12 -20 -20 -17 -2 -8 14 -9 -19 3 -15 2 24 29 27 25 26 22 9 -20 -20 -20 -20 -20 -20 -20
-17 -16 -3 -20 3 -5 1 -13 -20 3 7 8 13 -10 -2 -20 -10 17 32 35 26 22 21 31 -8 -20 -20 -20 -20 -20 -20 -20
-20 -20 -5 3 -4 -11 -3 -19 -20 -6 5 10 9 4 -20 -20 -6 7 27 24 36 28 35 15 -7 -10 -20 -19 -14 -20 -20 -20
-20 -20 -19 5 11 -4 -20 -20 -19 -13 2 6 0 4 1 -20 -4 -1 27 30 31 28 26 16 -4 -19 -20 -20 -20 -20 -20 -20

GFSFLT2_prec_radar_123.txt.gz
Reflectivity
-20 -20 -20 -20 -20 -20 -20 -20 -14 4 -8 -17 -20 -20 -20 -20 -20 -20 -20 -19 2 28 29 15 -20 -20 -20 -20 -20 -20 -20 -20
-20 -20 -20 -20 -20 -20 -20 -20 -20 6 -20 -20 -20 -20 -20 -20 -20 -20 -20 -20 -20 -15 26 32 -19 -20 -20 -20 -20 -20 -20 -20
-20 -20 -20 -20 -20 -20 -14 -20 -20 -20 -16 -20 -20 -20 -20 -20 -20 -20 -20 -20 -20 -20 24 -20 -10 -20 -20 -20 -20 -20 -20 -20
-20 -20 -20 -20 -20 -17 -20 -10 -20 -18 -6 6 -2 -4 20 -20 -20 -4 -20 -20 -20 -0 26 32 17 -20 -13 -20 -20 -18 -20 -20
-20 -20 -20 -20 -20 -20 -19 -20 -20 -20 -6 4 1 -20 -16 -20 27 -20 -14 -20 -18 -2 -11 23 26 -12 -17 -20 -20 -20 -20 -20
-20 -20 -20 -20 -20 -17 -2 -20 -20 -20 -20 6 1 -20 -20 -18 -20 22 -20 -15 23 -20 14 24 29 -20 -20 -20 -18 -20 -20 -20
-20 -20 -20 -20 -20 -20 -15 -20 -20 -20 -20 -20 9 2 -20 -16 0 -17 -20 -2 14 -16 -16 15 25 -20 -20 -20 -18 -20 -20 -20
-20 -20 -20 -20 -19 -20 -11 -20 -20 -20 -20 -14 8 6 5 -10 -20 -2 25 27 -5 9 24 8 19 -20 -20 -18 -20 -20 -20 -20
-20 -20 -20 -20 -20 -17 -5 -19 -20 -20 -17 3 8 2 -0 -20 -20 -13 -20 8 33 33 34 27 15 -10 -20 -20 -18 -20 -20 -20
-20 -20 -20 -20 -20 -14 -4 6 -3 -20 -2 8 7 9 5 30 0 4 -14 24 28 30 36 27 27 -19 -20 -14 -20 -20 -20 -20
-20 -20 -20 -20 -20 -20 -18 -11 -4 -15 -20 3 -13 12 3 11 4 -20 7 8 13 30 36 26 12 -20 18 6 -20 -20 -20 -20
0 -19 -20 -20 -20 -20 -20 10 -2 -6 -3 -20 7 11 13 26 -0 -10 -12 -1 26 23 32 30 13 -20 9 -20 -20 -20 -20 -20
-20 -20 -20 -20 -20 -20 -20 5 -1 -20 4 4 -20 -20 12 10 12 -9 -20 6 14 25 30 32 21 -20 -20 -10 -2 -18 -20 -20
-20 -20 -20 -20 -20 -20 -20 6 -20 -20 -1 -1 -20 2 -12 12 12 -4 0 13 -11 2 35 32 25 1 4 -12 11 18 16 -20
-6 -20 -20 -20 -20 -20 -12 -20 -17 -3 2 -14 -20 -9 1 14 11 2 -2 -1 21 -11 31 35 21 -2 25 -20 -3 8 -7 -20
-20 -20 -20 -20 -20 -20 -20 -13 6 -16 4 2 -8 -5 2 6 12 -1 9 10 5 9 30 30 31 17 19 -6 -20 -20 8 12
-20 -20 -20 -20 -19 -13 -9 16 10 -6 4 -20 -0 -3 1 9 6 9 -2 16 11 15 23 32 23 23 -4 -15 -20 -20 -20 -20
-2 2 -20 -15 3 6 -5 14 7 5 -20 -14 3 9 12 7 12 -2 -9 -20 10 24 31 28 28 34 23 -11 -20 -20 -20 -20
-20 -20 -20 -13 6 2 -19 12 20 13 -20 3 11 -16 -8 -14 2 -16 -12 -19 27 17 31 27 25 27 -1 3 -20 -20 -20 -20
-20 -20 -20 -20 6 -20 -20 19 15 -4 -19 -18 3 -2 -5 -1 -20 -20 -20 -20 24 25 22 31 29 27 24 20 -20 -11 1 -20

GFSFLT2_prec_radar_129.txt.gz
Reflectivity
-20 -20 -20 -20 -20 -20 -20 -20 -20 -20 -20 -20 -20 -20 -20 -20 -20 -20 -20 -20 -20 -20 -20 -20 3 27 -9 -20 -20 15 -20 -6
-20 -20 -20 -20 -20 -20 -20 -20 -20 -20 -5 -18 -20 -20 -20 -20 -20 -20 -20 -20 -20 -20 -20 -20 -1 16 -18 -20 2 -20 -18 -20
-20 -20 -20 -20 -20 -20 -20 -20 -20 -15 -2 12 -20 -20 -20 -20 -20 -20 -20 -20 -20 -20 -20 -20 26 30 19 -10 -11 -20 11 -20
-20 -20 -20 -20 -20 -20 -20 -20 -20 -20 -19 -12 -8 -20 -20 -20 -20 -7 -20 -20 -20 -20 -20 -20 -20 4 15 12 -8 -20 -20 -20
-20 -20 -20 -20 -20 -20 -20 -20 -20 -20 -20 -19 -20 -20 -20 -20 -20 -20 -20 -20 -20 -20 -20 -20 -20 15 18 12 -20 -20 -20 -20
-20 -20 -20 -20 -20 -20 -20 -20 -20 -20 -20 -20 -20 -20 -20 -20 -20 -20 -20 -20 -20 -20 -20 -20 -20 6 -19 -20 -20 -20 -20 -20
-20 -20 -20 -20 -20 -20 -20 -20 -20 -20 -20 -20 -20 -20 -20 -20 -20 -20 -13 -20 -20 -19 -20 -20 -20 10 -17 -20 -20 -20 -20 -20
-20 -20 -20 -20 -20 -20 -20 -20 -20 -20 -20 -20 -20 -20 -20 -20 -20 -20 -20 -20 -20 -20 19 4 14 3 9 28 -17 -20 -20 -20
-20 -20 -20 -20 -20 -20 -20 -20 -20 -20 -20 -20 -20 -20 -20 -20 -20 -20 -20 -20 -20 -20 -20 21 24 16 24 34 14 -20 -20 -20
-20 -20 -18 -20 -20 -20 -20 -20 -20 -20 -20 -20 -20 -20 -20 -20 -20 -20 -20 -20 -20 -20 -16 -13 16 23 23 34 20 -20 -20 -20
-20 -20 -20 4 -20 -20 -20 -20 -20 -20 -17 -8 -7 -15 -6 8 -13 -20 -20 -20 -20 -20 -20 -0 4 15 21 34 20 -17 -20 -20
-20 -20 -12 10 -20 -20 -18 -20 -20 -20 -20 1 6 13 13 15 11 12 -20 -20 -20 -16 1 -7 6 12 35 27 13 17 -19 -20
-20 -20 -20 -20 -20 -20 -20 -20 -20 -20 -20 -20 -3 17 18 17 16 4 -7 -20 -20 -20 10 2 -20 -6 14 28 30 24 15 -2
-20 -20 -20 -20 -20 -20 -20 -20 -20 -20 -20 -20 -16 13 19 19 19 8 10 -20 -14 21 10 9 -20 -18 6 23 27 27 -6 -2
-20 -20 -20 -20 -20 -20 -20 -20 -20 -20 -19 -13 -14 13 16 6 18 16 13 17 10 16 13 9 -20 -20 -20 -9 6 9 14 6
-4 -14 -20 -20 -20 -20 -20 -20 -20 -20 -20 -20 17 10 16 18 11 19 13 11 20 8 0 -9 -15 -20 11 -20 -20 -20 -1 16
10 -20 -20 -20 -20 -20 -20 -20 -20 -20 -20 9 -15 13 15 19 19 25 19 15 20 10 6 14 9 11 -20 -20 -20 -18 -12 -9
8 -20 -20 -20 -20 -20 -20 -20 -20 -20 -20 4 -16 10 12 11 15 20 20 8 7 5 9 4 -20 22 4 13 -12 -20 -20 -20
-13 -17 -6 -18 -20 -20 -20 -20 -0 7 -16 -18 -13 2 1 12 13 2 9 -5 -9 -7 -2 -8 -8 11 1 15 22 16 10 1
-20 -20 -20 -7 6 -20 -20 -20 -20 2 3 7 3 -20 -15 3 -2 19 2 -20 -8 -18 -3 12 -2 10 -9 29 35 24 12 8

GFSFLT2_prec_radar_132.txt.gz
Reflectivity
-20 -20 -20 -20 -20 -20 -20 -20 -20 -20 -20 -20 -20 -20 -20 -20 -20 -20 -20 -20 -20 -20 -20 -20 -20 -13 11 -1 -20 -20 -19 26
-20 -20 -20 -20 -20 -20 -20 -20 -20 -20 -20 -20 -20 -20 -20 -20 -20 -20 -20 -20 -20 -20 -20 -20 -20 -5 3 -7 -20 -20 -20 -20
-20 -20 -20 -20 -20 -20 -20 -20 -20 -20 -20 -20 -20 -20 -20 -20 -20 -20 -20 -20 -20 -20 -20 -20 -20 -8 21 -17 -5 -16 -20 -20
-20 -20 -20 -20 -20 -20 -20 -20 -20 -20 -20 -20 -20 -20 -20 -20 -20 -20 -20 -20 -20 -20 -20 -20 -20 -20 -14 -1 3 1 -20 -20
-20 -20 -20 -20 -20 -20 -20 -20 -20 -20 -20 -20 -20 -20 -20 -20 -20 -20 -20 -20 -20 -20 -20 -20 -20 -20 -20 23 6 -11 -20 -20
-20 -20 -20 -20 -20 -20 -20 -20 -20 -20 -20 -20 -20 -20 -20 -20 -20 -20 -20 -20 -20 -20 -20 -20 -20 -20 -20 7 21 2 -20 -20
-20 -20 -20 -20 -20 -20 -20 -20 -15 -20 -20 -20 -20 -20 -20 -20 -20 -20 -20 -20 -20 -20 -20 -20 -20 -20 -20 -20 17 -12 -20 -20
-20 -20 -20 -20 -20 -20 -20 -20 -20 -20 -20 -15 -20 -13 -20 -20 -20 -20 -20 -20 -20 -20 -20 -20 27 22 18 23 12 -0 -17 -20
-20 -20 -20 -20 -20 -20 -20 -20 -20 -20 -20 -20 -20 -20 -20 -20 -20 -20 -20 -20 -20 -20 -20 -20 -19 10 30 32 26 23 -4 -20
-20 -20 -20 -20 -20 -20 -15 -11 -20 -20 -20 -20 -20 -20 -20 -20 -20 -20 -20 -20 -20 -20 -20 -20 -20 -20 -3 6 -9 23 21 -20
-20 -20 -20 -20 -20 -20 -20 -20 -20 -20 -20 -20 -20 -20 -20 -20 -20 -20 -20 -20 -20 -20 -20 -20 -20 -20 -20 -4 1 22 23 -20
-20 -20 -20 -20 -19 -8 -5 -1 -10 -20 -20 -20 -19 -0 11 14 12 13 -20 -20 -10 -4 -20 -4 -16 -20 5 -2 8 19 17 -20
-20 -20 -20 -18 29 -4 -16 -17 -11 -20 -20 -20 -20 -20 13 16 12 9 -4 -18 -20 32 -20 -20 -20 -5 -10 10 9 21 19 6
-20 -20 -20 -20 -20 -18 5 15 -20 -20 -20 -20 -20 -20 -20 3 -13 31 19 13 5 -17 -6 15 -20 -19 -12 -4 22 22 15 2
-20 -1 -20 -20 -20 -20 -20 -20 -20 -20 -20 -20 -20 -20 -20 14 -20 -19 -10 32 -16 -4 11 6 14 11 -19 -19 6 22 13 24
-20 -17 -12 -19 -20 -20 -20 -20 -20 -20 -20 -20 -20 -20 -17 28 19 12 28 -7 -20 9 15 13 12 11 -18 -20 -20 -20 -20 -17
-20 7 20 8 -20 -20 12 -20 -20 -20 -20 -20 8 11 13 17 17 17 13 10 13 10 13 20 9 12 4 -8 -20 -20 -20 -20
-20 -6 9 12 -8 -19 -20 -20 -20 -20 -20 12 5 -9 18 17 10 16 19 20 15 3 18 19 12 -2 7 8 -15 -17 -20 -20
8 7 7 6 -6 -13 -20 -20 -20 -20 -12 17 14 -7 7 16 16 5 16 17 5 11 0 15 15 3 -11 6 -10 -5 -8 -18
17 11 -2 -1 -8 4 -18 -20 -20 -19 -3 -20 16 -15 -3 13 15 17 14 18 17 26 13 15 -2 2 16 4 -11 21 20 16

GFSFLT2_prec_radar_135.txt.gz
Reflectivity
-20 -20 -20 -20 -20 -20 -20 -20 -20 -20 -20 -20 -20 -20 -20 -20 -20 -20 -20 -20 -20 -20 -20 -20 -20 -20 -20 -20 -18 -3 -20 -20
-20 -20 -20 -20 -20 -20 -20 -20 -20 -20 -20 -20 -20 -20 -20 -20 -20 -20 -20 -20 -20 -20 -20 -20 -20 -20 -11 -19 -9 -6 -20 -20
-20 -20 -20 -20 -20 -20 -20 -20 -20 -20 -20 -20 -20 -20 -20 -20 -20 -20 -20 -20 -20 -20 -20 -20 -20 -20 13 -20 8 -19 -20 -11
-20 -20 -20 -20 -20 -20 -20 -20 -20 -20 -20 -20 -20 -20 -20 -20 -20 -20 -20 -20 -20 -20 -20 -20 -20 -20 -20 -20 11 27 -18 -20
-20 -20 -20 -20 -20 -20 -20 -20 -20 -20 -20 -20 -20 -20 -20 -20 -20 -20 -20 -20 -20 -20 -20 -20 -20 -20 -20 -20 -14 21 6 -20
-20 -20 -20 -20 -20 -20 -4 -19 -20 -20 -20 -20 -20 -20 -20 -20 -20 -20 -20 -20 -20 -20 -20 -20 8 -20 -20 -20 -20 23 28 -7
-20 -20 -20 -20 -20 -20 -20 -20 -16 -12 -20 -20 -20 -20 -20 -20 -20 -20 -20 -20 -20 -20 -20 -20 -20 -20 -18 -20 -20 24 32 -12
-20 -20 -20 -20 -20 -20 -20 -20 -20 -20 -20 -20 -1 -8 -20 -20 -20 -20 -20 -20 -20 -20 -20 -20 -20 -20 -9 -3 15 17 16 -20
-20 -20 -20 -20 -20 -20 -20 -20 -20 -20 -20 -20 -14 2 11 -10 -20 -20 -20 -20 -20 -20 16 -20 -20 -20 -20 -14 15 23 25 18
-20 -20 -20 -20 -20 -20 -20 -20 -20 -20 -20 -20 -20 -10 6 8 -20 -20 -20 -20 -20 -20 -20 -20 -20 -20 -20 -11 -16 0 22 20
-20 -20 -20 -20 -20 -20 -20 -20 -20 -20 -20 -20 -20 -20 -20 -20 -3 -20 -20 -20 -20 -20 -20 -20 -7 -20 -20 6 -7 6 7 29
-20 -20 -20 -20 -20 -20 -20 -14 -17 -20 -20 -19 -20 -20 -20 -20 -20 -20 -20 -20 -20 -20 -16 -19 -20 -20 -20 3 2 21 28 24
-20 -20 -20 -20 -20 -20 -20 -2 9 12 5 5 -20 -19 -20 -20 -20 -20 7 6 2 13 -17 -16 -20 -20 -20 2 9 -1 2 27
-20 -5 3 -7 -20 -20 17 -19 -18 5 -3 -17 -10 -17 -20 -20 -20 -7 -20 -11 -4 26 -6 -12 -20 -20 -20 -17 16 -19 -20 -12
-20 -20 5 5 -17 15 -10 -20 -12 -20 -20 -20 -20 -20 8 -7 -20 15 -20 7 -7 33 -14 -19 5 -13 -20 -16 20 -16 -20 -20
-20 -20 -20 7 12 -13 -1 -15 1 -20 -20 -20 -20 -0 -2 -10 -18 6 -20 -20 23 -20 18 -9 12 12 -18 -20 -19 -20 -20 -13
-9 -13 -11 -9 -17 4 -18 -2 -5 4 -2 -13 -15 12 2 27 -13 8 -20 -18 -20 -20 16 19 -8 16 17 10 -19 -20 10 -12
-20 -18 -16 1 2 -5 5 2 12 9 12 11 2 21 13 16 -3 12 17 -20 4 -7 -20 -8 1 12 10 -1 -3 5 -20 4
2 18 16 10 7 -11 -17 -20 -20 6 7 1 7 -18 16 19 22 25 16 12 -13 -15 0 10 -5 11 8 17 -10 -13 -20 -20
9 16 22 5 -4 -8 -20 -20 -20 -17 6 1 2 -17 -16 -13 24 24 15 -20 4 12 30 11 5 18 12 5 3 -20 -20 -3

GFSFLT2_prec_radar_138.txt.gz
Reflectivity
-20 -20 -20 -20 -20 -20 -20 -20 -20 -20 -20 -20 -20 -20 -20 -20 -20 -20 -20 -20 -20 -20 -20 -20 -20 -20 -19 -20 -20 -12 -13 -20
-20 -20 -20 -20 -20 -20 -20 -20 -20 -20 -20 -20 -20 -20 -20 -20 -20 -20 -20 -20 -20 -20 -20 -20 -20 23 -20 -20 -19 -12 14 -20
-20 -20 -20 -20 -20 -20 -20 -20 -20 -20 -20 -20 -20 -20 -20 -20 -20 -20 -20 -20 -20 -20 -20 -20 -20 -20 -20 -2 -19 -20 14 -20
-20 -20 -20 -20 -20 -20 -20 -20 -20 -20 -20 -20 -20 -20 -20 -20 -20 -20 -20 -20 -20 -20 -20 -20 -20 -20 -20 -20 -20 -20 -3 -19
-20 -20 -20 -20 -20 -20 -20 -20 -20 -20 -20 -20 -20 -20 -20 -20 -20 -20 -20 -20 -20 -20 -20 -20 -20 -20 -20 -13 -20 -20 -14 -15
-20 -20 -20 -20 -20 -20 -20 -18 -20 -6 -6 -0 3 -16 -20 -20 -20 -20 -20 -20 -20 -20 -20 -20 -20 -20 -20 -20 -20 -20 33 27
-20 -20 -20 -20 -20 -20 -20 -20 -20 -20 -17 -3 -0 12 -13 -20 -20 -20 -20 -20 -20 -20 -20 -20 -20 -20 -20 -20 -17 -17 19 21
-20 -20 -20 -20 -20 -20 -20 -20 -20 -20 2 -20 -16 10 -6 -20 -20 -20 -20 -20 -20 -20 -20 -20 -20 -20 -20 -20 -18 11 8 26
-20 -20 -20 -20 -20 -20 -20 -20 -20 -20 -1 -20 -20 -20 -11 -20 -20 -20 -20 -20 -20 -20 -20 -20 -20 -20 -20 -20 -20 -5 22 24
-20 -20 -20 -20 -20 -20 -20 -20 -20 -20 -20 -20 -20 -20 -20 -2 -15 -20 -20 -20 -20 -20 -20 -20 -20 -20 -20 -20 -20 -20 -20 21
-20 -20 -20 -20 -20 -20 -20 -20 -20 -20 -20 -20 -20 -14 -13 4 -5 -13 -20 -20 -20 -20 -3 -20 -20 -20 -20 -20 -20 -5 -6 0
-20 -20 -20 -20 -20 -20 -8 -19 -20 -20 -20 -20 -20 -16 0 6 -8 -3 -5 6 -20 3 -1 -15 15 -20 -20 -20 -20 -20 -20 9
-20 -20 -20 -6 -20 -20 -20 -20 -19 -15 -20 -20 -20 -20 -20 -20 -20 2 0 13 0 -7 -10 -20 28 14 -20 -20 -20 -20 -20 6
-20 -20 -4 7 2 8 -13 -20 30 7 4 -2 -14 -14 -8 10 -19 6 -5 22 -10 -20 -7 3 23 29 -19 -20 -20 3 -11 -20
-20 -20 -20 -20 -20 -0 8 -2 36 9 19 14 20 -0 22 -14 -6 10 7 -5 13 10 -12 31 20 10 4 -20 -18 -20 -8 -20
-20 -20 -20 -15 -15 -2 2 6 -17 -20 33 18 33 22 1 -1 11 17 -4 9 13 3 28 15 18 15 -8 1 -18 -20 -20 -19
-20 -20 -20 -20 -20 -3 9 32 8 21 -2 10 7 15 2 -0 20 5 -11 -6 4 17 -14 20 -12 -9 -20 -13 -19 -20 -20 -20
-20 -20 -20 -20 -6 8 -6 20 22 8 -19 -20 -19 -8 -6 -0 12 -3 -10 -2 -2 4 -2 6 11 7 -15 -8 2 -20 -20 -20
-20 31 -20 -3 -6 3 31 -20 6 -20 -20 -20 -20 -20 -20 -6 15 6 12 5 4 11 1 -17 6 4 34 4 -5 -15 -20 -20
27 27 3 -20 -20 12 -1 16 -10 -15 -20 -20 -20 -20 -20 25 -19 -3 -19 -16 1 18 21 17 -4 17 8 -12 10 -20 -13 -15